User: anonymous   Login
Location: Unspecified
(0.0000°N, 0.0000°E)
Time: 08:29:15
(UTC+00:00)
Language:

GSAT 7 - Orbit

View from above orbital plane
View from above orbital plane
View from above satellite
View from above satellite

Ground track
Ground track

The orbit data is extracted from the following two-line orbital elements,

1 39234U 13044B   14332.80750014 -.00000083  00000-0  00000+0 0  3985
2 39234 000.0667 089.4059 0009740 173.3245 169.6085 01.00270874  4606
Epoch (UTC): 28 November 2014 19:22:48
Eccentricity: 0.0009740
inclination: 0.0667°
perigee height: 35745 km
apogee height: 35827 km
right ascension of ascending node: 89.4059°
argument of perigee: 173.3245°
revolutions per day: 1.00270874
mean anomaly at epoch: 169.6085°
orbit number at epoch: 460

The dashed part of the orbit path shows where the satellite is in the earth's shadow,  

DLR